Content
SEND FEEDBACK

Daily
Averages
Monthly
Summary
United States of America

NEW YORK - CENTRAL PARK, NEW YORK


Home > North America > United States > New York
Elevation: 4 meters     Latitude: 40 47N     Longitude: 073 58W

WEATHER
 
SELECT A DAY
Number of Records: 152,321;   Date Range: 11/1/95 - 11/27/14
 
SHARE

PRINT THIS DATA

[ ← Previous Day ]
WEATHER ALMANAC - 1 SEPTEMBER, 2013
[ Next Day → ]
[ °F ]   °C
Weather ElementAverageHighLow
Temperature25.9 °C28.3 °C (1:39 pm)23.9 °C (5:51 am)
Dewpoint21.3 °C22.2 °C (8:51 pm)20.6 °C (1:51 am)
Humidity76.1 %90 % (11:51 pm)65 % (1:39 pm)
Barometer1010.5 hPa1012.2 hPa (10:38 am)1009.1 hPa (3:51 am)
Wind Speed3.9 km/h13 km/h (4:02 pm)
Weather ElementAverage
Visibility14 km
Wind DirectionNNE (22.5 °)

Weather ElementTotal
Precipitation---
Cooling Degree Days7.8 (Base 18.3)
Growing Degree Days16.1 (Base 10)
Averaged from 32 records on 1 September, 2013
WEATHER CONDITIONS BREAKOUT
WIND DIRECTION BREAKOUT
WEATHER BY HOUR - 1 SEPTEMBER, 2013
[ °F ]   °C
Local TimeTemperatureDewpointHumidityBarometerVisibilityWind DirectionWind SpeedGust SpeedPrecipitationEventsConditions
1:51 AM25.6 °C20.6 °C74 %1009.8 hPa16.1 kmNorthPartly Cloudy
2:51 AM25 °C20.6 °C76 %1009.8 hPa16.1 kmCalmPartly Cloudy
3:51 AM25 °C20.6 °C76 %1009.1 hPa16.1 kmVariable7.4 km/hClear
4:51 AM25 °C21.1 °C79 %1009.8 hPa16.1 kmVariable7.4 km/hClear
5:51 AM23.9 °C20.6 °C82 %1010.2 hPa16.1 kmWSW (240°)7.4 km/hScattered Clouds
6:51 AM24.4 °C20.6 °C79 %1010.5 hPa16.1 kmVariable7.4 km/hScattered Clouds
7:51 AM25 °C20.6 °C76 %1010.8 hPa16.1 kmCalmPartly Cloudy
8:36 AM25.6 °C21.1 °C76 %1011.9 hPa16.1 kmCalmMostly Cloudy
8:51 AM25.6 °C21.1 °C76 %1010.8 hPa16.1 kmCalmOvercast
9:51 AM25.6 °C21.7 °C79 %1010.8 hPa14.5 kmCalmOvercast
10:38 AM25 °C21.7 °C82 %1012.2 hPa12.9 kmVariable5.6 km/hOvercast
10:51 AM25 °C21.7 °C82 %1011.2 hPa11.3 kmVariable5.6 km/hOvercast
11:51 AM25.6 °C21.7 °C79 %1011.2 hPa9.7 kmCalmHaze
12:13 PM26.7 °C21.1 °C71 %1011.5 hPa9.7 kmCalmHaze
12:27 PM27.2 °C21.7 °C72 %1011.2 hPa9.7 kmCalmHaze
12:51 PM27.8 °C21.1 °C67 %1010.2 hPa12.9 kmVariable7.4 km/hPartly Cloudy
1:39 PM28.3 °C21.1 °C65 %1011.2 hPa14.5 kmCalmMostly Cloudy
1:51 PM27.8 °C21.1 °C67 %1010.2 hPa14.5 kmCalmMostly Cloudy
2:28 PM28.3 °C21.1 °C65 %1010.8 hPa14.5 kmCalmScattered Clouds
2:51 PM28.3 °C21.1 °C65 %1009.8 hPa14.5 kmVariable9.3 km/hMostly Cloudy
3:31 PM27.2 °C21.7 °C72 %1010.5 hPa14.5 kmVariable9.3 km/hOvercast
3:51 PM27.2 °C21.1 °C69 %1009.8 hPa14.5 kmSSE (160°)9.3 km/hMostly Cloudy
4:02 PM27.8 °C21.7 °C69 %1010.5 hPa14.5 kmSouth (170°)13 km/hScattered Clouds
4:51 PM27.2 °C21.7 °C72 %1009.5 hPa14.5 kmCalmClear
5:51 PM26.1 °C21.7 °C77 %1009.5 hPa14.5 kmVariable5.6 km/hClear
6:51 PM25.6 °C21.7 °C79 %1009.5 hPa12.9 kmNorthClear
7:51 PM25 °C21.7 °C82 %1009.5 hPa12.9 kmSSE (150°)5.6 km/hClear
8:51 PM25 °C22.2 °C84 %1010.2 hPa12.9 kmCalmClear
9:51 PM25 °C21.7 °C82 %1010.5 hPa14.5 kmCalmClear
10:51 PM24.4 °C21.7 °C85 %1010.2 hPa16.1 kmVariable7.4 km/hClear
11:11 PM23.9 °C21.7 °C87 %1010.8 hPa11.3 kmVariable7.4 km/hPartly Cloudy
11:51 PM23.9 °C22.2 °C90 %1009.8 hPa11.3 kmCalmScattered Clouds
Hourly data recorded from KNYC, located 0 kilometers away from New York - Central Park, New York







STORIES FROM OUR PARTNERS